Regional Weather Roundup
Issued by NWS

Home | Current Version | Previous Version | Text Only | Print | Product List | Glossary Off
Versions: 1 2 3 4 5 6 7 8 9 10 11 12 13 14 15 16 17 18 19 20 21 22 23 24 25 26 27 28 29 30 31 32 33 34 35 36 37 38 39 40 41 42 43 44 45 46 47 48 49 50

000
ASUS45 KABQ 280310
RWRNM
WEATHER ROUNDUP FOR NEW MEXICO
NATIONAL WEATHER SERVICE ALBUQUERQUE NM
800 PM MST FRI FEB 27 2015

NOTE: "FAIR" MEANS FEW OR NO CLOUDS BELOW 12,000 FEET AGL WITH NO
       SIGNIFICANT WEATHER OR OBSTRUCTIONS TO VISION.

      THIS PRODUCT IS RELEASED AS TWO VERSIONS.  ONE VERSION NEAR
      THE TOP OF THE HOUR CONTAINING PRELIMINARY DATA FROM ALBUQUERQUE
      AND OTHER STATIONS.  A FINAL VERSION WITH ADDITIONAL DATA IS
      ISSUED ABOUT 10 MINUTES AFTER THE HOUR.

NMZ501-503-504-510>518-280400-
NORTHWEST PLATEAU/NORTHCENTRAL MOUNTAINS

CITY           SKY/WX    TMP DP  RH WIND       PRES   REMARKS
FARMINGTON     LGT SNOW  30  28  92 E7        29.78R FOG     WCI  23
LOS ALAMOS     LGT SNOW  16  16 100 S10       29.84S WCI   3
SANTA FE       LGT SNOW  18  13  80 SE14      29.88S WCI   4
TAOS           CLOUDY    19  14  79 NW3       29.85R
ANGEL FIRE     LGT SNOW  18  15  90 SE6       29.80R WCI  10

$$
NMZ402-403-502-505>509-280400-
WESTCENTRAL MOUNTAINS/SOUTHWEST MOUNTAINS

CITY           SKY/WX    TMP DP  RH WIND       PRES   REMARKS
GALLUP         CLOUDY    34  31  88 NE8       29.78R WCI  27
GRANTS         LGT SNOW  24  23  93 S10       29.84R WCI  14
SILVER CITY    MOCLDY    41  23  48 SE8       29.87R

$$
NMZ407-409-411-412-280400-
SOUTHERN DESERTS

CITY           SKY/WX    TMP DP  RH WIND       PRES   REMARKS
LORDSBURG      FAIR      46  25  42 SE14      29.80R
DEMING         PTCLDY    43  23  45 MISG      29.84R
LAS CRUCES     CLEAR     38  23  56 SE12      29.88R WCI  30
HOLLOMAN AFB   PTCLDY    34  22  61 S9        29.92R WCI  27
ALAMOGORDO     PTCLDY    32  23  69 MISG      29.93R
T OR C         PTCLDY    39  26  59 E5        29.86R

$$
NMZ519>523-280400-
CENTRAL VALLEYS/CENTRAL HIGHLANDS

CITY           SKY/WX    TMP DP  RH WIND       PRES   REMARKS
ALBUQUERQUE    LGT SNOW  24  22  91 N7        29.90R VSB 1   WCI  16
DOUBLE EAGLE   LGT SNOW  21  19  93 NE10      29.88S VSB 3/4 WCI  10
MORIARTY ARPT  LGT SNOW  15  12  89 SE8       29.94R WCI   4
CLINES CORNERS FOG       11   8  88 SE14      29.86S VSB 1/2 WCI  -5
BELEN          LGT SNOW  27  26  99 NE7       29.89S WCI  19
SOCORRO          N/A     32  28  83 CALM      29.90R

$$
NMZ524>526-539-540-280400-
SOUTHCENTRAL MOUNTAINS

CITY           SKY/WX    TMP DP  RH WIND       PRES   REMARKS
RUIDOSO        FOG       14  10  85 MISG      29.95R VSB<1/4

$$
NMZ527>531-280400-
NORTHEAST HIGHLANDS/NORTHEAST PLAINS

CITY           SKY/WX    TMP DP  RH WIND       PRES   REMARKS
LAS VEGAS      LGT SNOW   8   4  83 S15       29.90S VSB 1   WCI  -9
RATON          LGT SNOW  11   8  88 S8        29.92R FOG     WCI  -1
CLAYTON        FLURRIES  12   8  84 S22       30.04R WCI  -7

$$
NMZ532>537-280400-
EASTCENTRAL PLAINS

CITY           SKY/WX    TMP DP  RH WIND       PRES   REMARKS
TUCUMCARI      CLOUDY    16  10  77 S10       30.11S WCI   4
CANNON AFB     FLURRIES  12   9  85 SE9       30.11S WCI   0
CLOVIS AIRPORT CLOUDY    12   9  85 SE12      30.13S WCI  -2

$$
NMZ028-029-538-280400-
SOUTHEAST PLAINS

CITY           SKY/WX    TMP DP  RH WIND       PRES   REMARKS
ROSWELL        CLOUDY    22  17  81 E10       30.12S WCI  11
ARTESIA        CLOUDY    23  21  93 SE13      30.14S WCI  11
CARLSBAD       CLOUDY    25  18  74 SE12      30.14S WCI  14
HOBBS          CLOUDY    18  18 100 E13       30.16S FOG     WCI   4


$$



USA.gov is the U.S. government's official web portal to all federal, state and local government web resources and services.